Temp
19 17 16 16 16 15 15 15 15 16 15 15 15 15 15 15 15 15 15 15 15 14 15 14 14 13 13 13 12 11 10 8 8 8 8 7 6 6 6 6 6 6 6
19 17 16 16 16 16 15 15 15 16 16 16 16 15 15 15 14 14 14 14 14 14 14 14 13 13 13 12 11 10 9 8 8 9 9 10 8 6 6 5 5 5 5
19 18 17 16 16 16 16 16 16 17 17 17 16 15 14 14 13 13 14 13 13 14 13 13 13 12 12 11 10 10 9 9 7 8 10 10 11 8 6 5 5 5 5
19 20 18 17 16 16 16 16 15 16 16 17 16 15 14 14 13 14 13 13 13 13 13 12 12 12 11 11 10 9 9 8 8 7 7 7 7 9 9 6 5 5 5
20 20 19 19 17 16 16 16 15 16 16 16 15 15 15 14 14 14 13 13 12 12 12 12 12 11 11 10 9 9 9 9 8 8 7 6 5 5 7 8 7 5 5
20 20 19 19 18 16 16 16 15 15 14 16 16 15 15 15 13 13 12 12 12 11 11 11 11 11 10 9 9 9 8 8 7 6 6 7 7 7 6 6 6 5 5
21 20 19 18 18 16 15 15 15 15 14 15 15 15 15 15 14 14 13 12 12 11 11 10 10 10 9 8 8 8 7 7 7 6 6 5 5 5 5 5 6 5 5
21 20 20 19 18 16 16 15 15 15 14 14 15 15 14 14 13 13 12 12 11 10 10 10 10 9 9 8 8 7 7 7 6 5 5 5 5 4 4 4 5 5 5
19 19 20 19 18 17 16 16 15 15 14 14 15 15 14 14 13 12 12 11 11 10 10 9 9 9 7 8 7 6 7 6 6 5 5 4 4 3 3 3 3 4 4
18 17 18 18 17 17 16 15 15 16 15 14 14 14 13 13 11 11 11 10 9 10 9 9 8 7 7 7 7 7 7 6 5 5 5 4 4 3 3 3 2 2 3
19 18 17 17 17 16 16 15 15 15 15 13 14 14 13 12 11 10 9 9 10 9 8 9 7 7 7 6 7 7 6 6 5 5 5 4 4 3 3 2 2 2 2
19 18 17 16 15 15 15 15 14 14 13 14 14 12 12 10 10 9 10 10 10 8 9 8 8 7 7 7 6 6 6 5 4 5 4 4 3 3 3 2 2 2 1
18 17 16 16 15 14 13 13 13 14 14 13 12 10 9 8 8 8 8 8 8 8 8 8 7 7 6 6 6 5 5 5 5 5 4 4 3 3 3 2 2 1 0
17 16 16 15 14 14 14 13 12 13 13 12 10 9 9 8 7 8 7 7 7 8 8 7 6 6 6 5 4 3 4 4 5 5 4 4 3 3 3 2 1 1 -0
16 16 16 15 14 14 13 13 13 12 12 10 9 9 8 8 7 7 7 7 8 8 8 7 6 5 4 4 4 3 3 4 4 4 5 4 4 4 3 1 1 0 -0
14 14 13 13 13 13 13 13 12 12 11 9 9 8 7 7 7 7 7 7 7 7 6 5 5 4 3 4 3 3 3 4 4 3 3 4 4 3 2 2 1 0 -0
12 11 11 10 9 10 10 11 10 10 9 8 8 7 7 7 7 7 7 6 6 5 4 4 3 2 3 4 2 3 3 3 3 3 3 2 2 3 1 1 0 -1 -1
10 9 9 8 7 7 7 8 8 7 7 6 6 6 6 6 5 5 4 4 4 4 3 2 2 3 3 2 1 2 3 2 2 2 2 2 1 1 1 0 -1 -1 -2
7 6 6 6 6 6 5 6 5 5 5 5 4 4 4 4 4 3 3 3 3 2 2 2 3 2 2 2 2 2 2 1 2 2 2 1 1 1 1 -1 -2 -2 -2
6 5 5 5 5 4 5 5 4 4 4 4 4 4 3 3 3 3 3 3 3 3 3 3 2 2 1 2 2 2 1 1 1 2 2 2 1 1 1 -1 -1 -2 -2
4 4 4 4 4 4 4 4 4 3 3 3 4 4 4 3 3 3 3 3 2 2 1 1 2 1 1 2 2 2 1 1 0 -0 0 1 2 1 0 -0 -1 -1 -2
4 4 4 3 3 4 4 4 3 3 3 3 2 2 2 2 2 2 2 1 1 1 0 0 0 0 1 2 2 1 1 1 0 0 -0 0 1 1 0 -1 -1 -1 -2
4 4 3 2 2 2 3 2 1 2 2 1 1 1 1 1 1 0 0 0 0 -0 -0 -0 -0 -0 -1 -1 -1 0 0 0 0 1 1 1 0 0 -0 -0 -1 -2 -4
3 3 2 2 1 0 0 0 1 1 1 -0 -1 -1 -1 -1 -1 -1 -1 -1 -1 -2 -2 -2 -2 -2 -2 -2 -2 -2 -2 -2 -2 -2 -1 0 0 -0 -0 -2 -2 -3 -4
2 2 1 0 -1 -1 -2 -1 -0 0 -1 -2 -2 -2 -3 -2 -2 -3 -3 -3 -3 -4 -4 -3 -4 -4 -4 -5 -6 -5 -5 -4 -4 -3 -3 -3 -3 -3 -3 -3 -3 -4 -4
1 0 -1 -2 -2 -3 -3 -3 -2 -1 -2 -3 -3 -4 -4 -4 -4 -4 -4 -6 -6 -6 -6 -6 -7 -7 -7 -8 -8 -7 -7 -6 -5 -5 -4 -3 -2 -3 -3 -3 -4 -4 -4
Height
808 811 815 818 821 824 827 829 833 836 840 842 845 847 849 852 856 858 860 863 866 868 868 870 872 876 878 879 881 881 882 884 885 886 888 886 885 885 884 884 885 884 883
804 808 811 814 818 820 824 827 829 831 835 839 843 845 847 850 853 855 857 860 862 864 867 869 874 874 875 877 878 880 880 882 882 883 883 882 884 883 881 881 881 881 882
800 803 805 807 811 813 816 820 825 828 831 835 838 841 845 848 850 851 854 856 859 860 866 870 871 872 874 876 878 880 879 876 878 878 878 878 875 880 880 880 880 880 880
794 795 798 801 804 808 813 817 820 823 828 830 834 836 838 841 844 848 851 854 856 858 862 866 868 869 871 873 875 878 878 878 876 876 876 876 877 875 874 878 878 878 878
786 788 790 794 799 804 807 811 815 819 821 825 829 832 834 837 841 846 848 851 853 857 858 861 862 864 865 868 870 875 873 872 870 871 873 875 875 876 876 872 874 876 875
776 780 784 790 793 797 801 805 809 813 816 820 822 826 830 832 838 841 843 846 849 853 855 857 858 860 861 861 861 862 869 868 868 870 871 872 872 872 872 871 871 872 872
767 771 776 779 784 788 794 798 804 808 811 814 817 820 824 826 830 833 836 838 840 844 848 852 854 857 859 861 859 859 864 863 864 866 868 869 870 870 871 871 869 869 868
759 761 764 769 774 780 786 791 795 800 804 807 810 814 818 821 825 830 833 834 835 840 844 849 852 855 857 856 863 856 859 860 861 863 864 866 866 867 868 868 868 865 864
756 757 760 763 767 773 777 781 788 794 797 799 804 807 811 816 819 823 828 831 833 838 843 846 848 849 851 854 856 856 857 858 859 861 862 863 864 864 864 865 865 864 860
753 756 758 761 765 769 775 781 785 787 789 796 800 802 805 809 814 818 822 826 830 834 838 843 846 847 849 852 850 853 854 855 856 858 859 859 860 860 860 861 862 861 860
748 751 756 760 764 769 773 776 780 786 790 792 793 796 800 804 808 811 816 820 825 828 833 837 841 845 846 846 850 850 851 851 852 854 856 855 855 856 856 857 857 857 856
749 749 752 757 762 766 770 773 778 782 785 788 791 794 796 800 803 805 808 812 814 822 830 832 835 836 840 844 847 848 848 848 848 848 849 850 850 850 851 852 852 851 851
750 752 755 758 761 766 767 770 774 777 781 784 788 792 794 798 802 804 807 809 814 820 826 831 833 837 838 842 844 843 844 844 845 845 844 844 845 845 845 846 846 846 845
752 753 756 758 761 764 765 768 772 774 778 782 785 789 791 794 798 801 803 805 810 817 824 830 836 838 839 841 841 841 841 839 840 839 839 838 837 838 839 840 840 840 840
754 756 758 759 761 763 765 767 770 772 776 779 783 785 788 791 794 797 801 805 811 815 821 824 828 834 834 836 835 837 837 835 834 832 831 830 829 830 832 833 834 834 835
759 761 762 764 765 765 766 767 770 772 775 778 781 784 787 790 793 798 802 807 813 815 820 820 822 826 831 833 833 833 831 829 826 823 822 821 821 823 824 826 827 828 829
765 766 767 768 769 769 768 770 772 774 776 779 781 784 787 791 794 798 803 807 811 816 818 821 824 826 827 828 828 828 826 822 819 816 815 814 813 815 818 819 820 821 821
769 770 772 773 773 773 773 774 775 777 780 782 785 787 789 792 796 800 804 808 813 816 818 820 823 824 824 823 822 822 819 815 812 809 808 807 807 807 810 812 813 814 815
772 772 773 774 775 776 777 778 780 783 786 789 791 792 794 797 800 804 807 810 814 817 819 820 820 819 818 818 817 816 812 808 804 802 799 799 799 800 803 804 806 808 808
774 775 777 779 779 780 781 782 786 789 792 794 796 799 801 803 805 808 810 813 815 816 817 816 815 814 813 813 811 809 806 801 797 794 792 791 792 794 796 797 799 800 801
777 779 780 780 783 785 785 786 791 795 799 801 803 804 806 808 809 810 811 812 812 812 813 813 811 810 809 806 804 803 800 796 791 789 787 785 785 787 789 790 790 790 793
780 781 780 784 788 790 790 794 798 802 803 804 805 807 808 809 809 810 810 811 811 811 810 808 806 804 802 800 797 795 793 790 786 782 779 778 778 779 781 783 782 784 785
782 784 785 788 793 795 797 799 803 804 805 806 807 809 809 809 810 810 810 810 809 808 807 805 802 799 798 795 792 788 785 782 779 775 772 771 770 770 771 770 772 775 777
785 787 789 794 798 800 801 802 804 806 806 808 809 810 810 811 811 811 811 810 809 808 806 804 801 797 795 793 790 785 781 776 772 768 764 761 760 760 759 761 762 764 766
786 790 793 797 801 804 804 806 807 808 808 810 811 811 811 810 810 810 810 810 810 809 806 804 802 797 793 791 788 783 777 772 767 762 756 753 751 748 748 749 751 752 755
788 792 796 800 804 805 807 808 808 809 810 811 812 812 812 811 811 811 810 809 807 806 804 802 800 797 793 786 780 774 769 764 759 753 749 744 741 739 738 735 737 740 743
Wind_Speed
15 16 18 21 21 22 22 23 23 23 22 22 18 18 19 20 20 20 20 20 21 19 17 16 14 13 9 7 7 7 6 4 6 6 3 3 4 6 6 6 4 2 2
12 15 19 21 24 25 25 24 26 27 28 26 24 21 23 21 21 21 20 20 20 19 17 16 15 12 10 9 8 9 6 4 7 4 2 3 6 7 8 7 5 4 1
16 14 20 25 26 26 27 26 25 27 28 29 27 21 22 19 17 18 19 21 21 20 18 16 14 12 9 8 8 9 9 10 6 6 3 3 3 2 6 8 5 4 4
16 15 21 26 29 29 27 28 29 33 32 32 31 32 24 18 17 21 22 24 23 22 20 18 15 11 10 9 9 8 6 5 6 4 5 5 3 3 3 4 4 6 7
18 19 23 26 26 26 28 30 29 31 30 33 32 30 26 24 22 25 26 25 24 22 22 20 17 15 14 14 9 6 5 8 8 6 5 4 3 4 6 7 6 6 7
18 19 24 24 26 26 26 30 28 27 27 32 33 34 35 31 25 29 29 27 25 24 23 21 18 17 17 14 10 6 11 7 4 5 5 5 4 4 6 7 9 9 11
18 18 19 26 27 28 28 27 27 27 29 33 35 37 39 34 33 34 36 35 32 31 29 25 21 20 16 11 12 11 11 8 6 8 6 6 6 5 6 8 11 10 10
16 19 21 25 27 28 28 27 28 28 28 33 36 39 37 35 32 32 35 37 35 32 30 25 22 19 10 11 15 13 11 9 10 9 8 8 8 9 9 10 9 8 11
13 16 19 25 26 25 29 32 28 27 27 33 34 36 37 36 35 35 37 37 34 32 29 26 23 16 16 17 15 10 9 9 9 9 10 11 12 11 11 11 11 12 9
6 10 13 20 21 23 22 22 26 30 31 27 29 33 35 37 35 35 37 35 33 30 30 26 21 15 19 16 14 9 10 11 11 12 11 11 11 11 11 13 12 13 15
7 5 9 14 17 17 21 25 27 25 24 24 33 34 35 33 33 34 34 34 32 33 31 27 20 20 18 13 9 8 11 14 14 15 14 12 12 12 13 13 13 13 13
6 5 6 6 9 14 15 17 18 20 21 28 30 30 29 28 31 31 35 34 35 36 32 28 24 23 16 12 8 8 14 17 17 17 16 15 13 15 14 14 15 14 14
3 3 2 4 5 7 8 12 15 19 22 23 22 20 19 19 20 22 28 29 34 33 29 24 22 19 14 10 11 9 16 20 21 20 19 18 14 15 16 16 15 15 14
2 2 2 3 5 8 10 10 11 13 14 15 16 16 16 16 16 19 22 28 32 32 27 21 16 14 9 6 8 14 19 22 23 25 24 22 21 20 18 17 17 15 14
8 7 5 4 2 2 3 4 5 7 8 11 11 12 13 13 14 18 24 27 27 27 25 24 20 14 5 8 16 17 19 21 24 27 29 27 27 26 21 17 16 15 15
11 12 12 12 11 7 4 3 3 4 5 5 5 6 7 9 14 17 18 18 21 22 21 21 20 14 10 16 17 20 20 23 24 24 24 28 29 26 24 21 21 18 15
10 11 10 11 11 12 11 8 4 1 0 1 2 3 6 8 10 12 13 16 19 17 17 14 8 7 14 20 18 20 25 23 22 22 22 20 24 26 21 20 20 20 20
8 9 11 13 14 13 15 14 12 10 8 7 5 5 7 8 10 12 15 17 18 13 10 9 11 16 21 20 20 23 27 25 26 25 23 21 21 24 23 18 16 17 17
9 12 13 14 15 16 15 17 18 16 15 13 13 12 14 16 18 19 19 15 10 8 11 13 17 21 25 21 22 25 23 23 24 23 24 22 21 23 25 19 18 17 18
12 13 14 15 17 16 17 22 20 20 19 17 16 16 17 17 16 12 10 5 4 7 13 20 22 22 19 22 25 22 20 23 22 23 23 23 23 26 26 23 21 18 19
14 14 16 19 18 17 20 25 23 23 19 19 17 15 12 9 6 3 1 5 7 9 11 14 17 19 22 26 24 23 24 23 22 19 19 22 26 29 28 26 26 26 18
15 16 22 22 20 20 24 24 20 15 14 13 13 12 11 10 8 6 5 6 7 9 12 15 17 17 21 23 24 23 24 26 25 24 23 25 28 29 27 28 31 27 24
19 20 24 24 20 18 18 19 14 14 14 14 13 11 10 9 9 8 8 8 9 9 12 14 17 19 17 19 23 26 27 26 29 31 30 29 29 27 28 30 31 30 23
20 21 23 22 19 17 17 16 15 14 14 14 13 11 11 9 9 8 9 9 11 13 14 16 19 21 21 20 20 24 27 27 25 27 32 35 31 30 33 28 30 29 28
20 20 21 20 19 18 18 17 15 13 14 12 10 10 9 10 10 10 10 10 10 11 14 15 16 20 22 22 29 29 30 29 30 32 31 27 23 24 25 25 25 27 28
21 21 20 21 18 18 17 15 14 13 11 10 9 10 10 10 10 11 10 10 9 9 10 13 15 18 19 28 31 32 31 31 28 28 27 27 26 25 26 26 25 26 27
Wind_Direction
210 207 204 200 200 204 204 203 205 206 203 198 196 202 202 202 199 198 198 197 195 191 187 180 172 172 169 178 184 175 166 149 176 152 167 177 174 180 177 177 170 157 130
223 213 206 208 211 208 208 206 206 204 201 201 204 205 203 203 199 194 194 196 192 189 187 185 182 177 181 182 186 195 169 152 178 196 214 229 219 217 209 205 212 224 234
221 215 208 208 211 212 211 211 211 208 206 205 205 201 199 200 198 190 192 190 190 188 191 192 187 181 180 176 183 194 190 175 180 185 199 227 266 256 219 227 234 242 255
221 219 208 210 209 210 212 212 211 210 211 212 209 206 198 188 201 197 191 187 190 191 193 192 186 180 172 169 168 179 188 186 165 159 194 214 228 278 268 227 247 265 277
218 216 215 217 215 210 212 214 213 212 213 213 211 208 209 202 203 199 190 189 189 195 192 192 187 180 171 163 156 164 195 199 195 187 187 211 209 222 264 290 286 288 285
220 222 222 215 215 212 211 215 212 212 210 213 213 212 214 209 203 195 191 190 191 194 195 192 187 182 173 174 195 187 209 202 185 190 191 220 240 256 263 275 287 287 288
222 216 210 208 209 206 207 208 209 211 213 216 213 215 222 220 215 205 203 197 196 199 198 195 191 187 190 221 181 186 202 201 195 192 203 214 239 248 260 266 282 283 293
223 220 218 213 209 206 207 207 208 211 210 216 219 221 222 223 220 216 213 209 205 207 201 197 193 187 213 183 212 195 201 210 204 209 222 236 241 244 247 255 277 282 280
227 226 222 218 214 209 207 208 209 213 214 218 219 223 224 227 227 226 222 218 216 213 205 195 189 194 232 203 208 203 211 224 220 228 238 248 249 250 249 243 246 267 291
229 221 222 219 217 216 212 208 215 217 220 217 221 225 227 230 228 229 225 219 218 210 199 195 199 243 198 206 202 208 228 233 230 230 241 248 246 248 239 238 243 251 268
266 234 216 217 215 210 202 209 216 221 221 215 225 227 228 230 227 225 222 224 221 211 203 199 222 201 199 195 206 220 241 230 225 228 244 245 242 239 233 238 245 250 257
264 249 204 203 206 207 208 212 214 216 221 232 234 232 231 230 229 225 229 225 217 211 204 205 200 193 192 201 210 264 255 237 228 232 235 242 236 234 237 241 243 251 259
272 286 80 166 198 198 194 211 222 230 234 233 236 233 228 223 224 226 227 221 212 204 203 203 192 194 189 193 231 270 258 247 242 243 241 246 237 237 239 239 248 254 253
56 78 107 152 176 192 209 211 211 227 230 231 229 228 230 228 225 226 217 215 205 202 197 194 194 183 166 218 275 260 257 255 251 253 254 252 246 242 240 239 247 251 248
65 73 94 109 134 193 222 244 240 231 234 226 221 226 231 228 216 207 209 205 202 198 196 191 184 179 194 278 297 263 269 270 264 264 263 260 254 248 240 236 251 242 246
81 73 71 68 56 37 18 341 310 281 262 252 245 239 224 220 213 210 207 207 201 197 193 180 175 194 222 290 279 281 282 281 275 269 264 260 253 244 241 243 253 241 244
88 79 70 63 56 52 56 51 46 39 259 272 273 242 221 203 208 209 201 196 192 177 159 167 189 219 252 289 284 279 292 287 283 276 267 255 245 237 230 242 246 247 250
86 76 76 77 67 71 73 77 74 76 80 85 105 138 152 145 148 149 155 150 141 148 179 197 231 255 274 279 280 282 288 287 284 279 271 254 241 230 227 233 229 232 239
90 82 76 76 74 73 80 86 83 85 86 86 92 102 114 117 120 119 124 139 154 183 213 237 258 271 283 285 285 294 295 288 284 281 273 257 239 230 230 231 227 235 244
95 93 87 87 82 77 86 85 84 86 85 88 92 98 106 108 107 113 130 159 217 254 268 275 272 280 278 285 295 295 293 291 285 284 275 262 240 235 234 231 230 231 246
106 104 96 86 83 88 90 85 87 87 94 95 93 89 86 89 93 116 272 293 299 297 293 290 289 288 290 295 293 293 292 290 289 277 269 258 249 240 238 238 235 241 250
111 103 95 88 87 90 94 94 90 96 92 87 79 74 73 71 58 41 9 342 329 315 309 305 302 300 305 308 308 304 297 289 282 282 273 266 261 250 242 244 244 245 246
107 104 101 94 85 85 91 92 86 92 91 84 74 67 62 53 40 29 12 354 343 328 318 315 312 312 314 312 313 316 316 307 287 279 281 281 270 260 246 241 243 243 230
115 112 105 98 91 86 85 87 91 93 87 78 68 60 52 43 31 26 15 1 354 344 336 329 322 319 321 322 324 321 316 311 304 294 282 274 266 256 249 239 238 229 225
120 116 110 104 96 90 82 82 85 84 78 71 58 45 34 24 16 18 11 7 360 351 340 335 330 332 328 328 328 323 318 312 309 305 285 266 250 243 237 234 227 222 223
124 116 111 108 102 93 83 75 72 70 68 61 44 33 27 20 16 5 358 358 5 0 351 342 344 337 331 333 335 330 325 317 305 299 287 277 255 248 242 226 224 222 225